sat.trackr.live / text

‹ back to catalog

STARLINK-32153

NORAD 60330 · 2024-136B

PAYLOAD ACTIVE UNKNOWN

§ Identity

Operator
Country
US
Launch date
2024-08-02
Launch site
AFETR
Launch vehicle
Mass (kg)
RCS (m²)

Purposes: comms

External: N2YO · Heavens-Above · Gunter

§ Orbital elements

Epoch: 2026-05-25T04:41:26.318400Z

Period
94.11 min
Inclination
53.1598°
Eccentricity
0.0000939
Mean motion
15.30199092 rev/d
Perigee alt
474.6 km
Apogee alt
475.9 km
Semi-major
6,853.4 km
B*
-2.9602e-5
RAAN
80.6124°
Arg perigee
104.4882°
Mean anomaly
255.6223°
Rev number
10,137

§ Raw data

STARLINK-321531 60330U 24136B   26145.19544350 -.00001236  00000+0 -29602-4 0  99932 60330  53.1598  80.6124 0000939 104.4882 255.6223 15.30199092101370

JSON: /api/v1/satellites/60330 · /tle

For live sub-satellite position, see the globe view (requires WebGL).

§ Visibility from observer

Set your observer location to see the next 7 days of passes ≥ 10°. The values pass through the URL so the page stays shareable.

No JS? Fill the form by hand. The geolocation button needs JavaScript.